Location: Brno
(49.2000°N, 16.6330°E)
Time: 08:54:25
(UTC+02:00)

Cosmos 2227 - Visible Passes

Search period start: 26 June 2017 00:00
Search period end: 06 July 2017 00:00
Orbit: 835 x 861 km, 71.0° (Epoch: 25 June)

Date Brightness Start Highest point End Pass type
(mag) Time Alt. Az. Time Alt. Az. Time Alt. Az.
26 Jun 7.1 01:23:15 10° NW 01:25:27 12° NNW 01:27:39 10° N visible
26 Jun 4.6 21:36:42 10° S 21:42:05 44° ESE 21:47:28 10° NE visible
26 Jun 5.7 23:21:03 10° WSW 23:26:22 38° NW 23:31:41 10° NNE visible
27 Jun 7.1 01:10:04 10° NW 01:12:18 12° NNW 01:14:32 10° N visible
27 Jun 5.7 23:07:54 10° WSW 23:13:14 39° NW 23:18:34 10° NNE visible
28 Jun 7.2 00:56:53 10° NW 00:59:09 12° NNW 01:01:26 10° N visible
28 Jun 5.7 22:54:45 10° WSW 23:00:06 39° NW 23:05:27 10° NNE visible
29 Jun 7.2 00:43:42 10° NW 00:46:01 12° NNW 00:48:20 10° N visible
29 Jun 5.7 22:41:37 10° WSW 22:46:59 40° NW 22:52:20 10° NNE visible
30 Jun 7.3 00:30:30 10° NW 00:32:52 12° NNW 00:35:14 10° N visible
30 Jun 7.4 04:04:27 10° N 04:07:13 14° NNE 04:09:59 10° ENE visible
30 Jun 5.7 22:28:29 10° WSW 22:33:51 40° NW 22:39:13 10° NNE visible
01 Jul 7.3 00:17:19 10° NW 00:19:44 13° NNW 00:22:08 10° N visible
01 Jul 7.5 03:51:21 10° N 03:54:05 13° NNE 03:56:47 10° ENE visible
01 Jul 5.7 22:15:21 10° WSW 22:20:43 41° NW 22:26:06 10° NNE visible
02 Jul 7.4 00:04:08 10° NW 00:06:35 13° NNW 00:09:02 10° N visible
02 Jul 7.5 03:38:15 10° N 03:40:56 13° NNE 03:43:36 10° ENE visible
02 Jul 5.7 22:02:12 10° WSW 22:07:36 41° NW 22:12:59 10° NNE visible
02 Jul 7.4 23:50:57 10° NW 23:53:27 13° NNW 23:55:56 10° N visible
03 Jul 7.6 03:25:10 10° N 03:27:48 13° NNE 03:30:25 10° ENE visible
03 Jul 5.7 21:49:05 10° WSW 21:54:29 42° NW 21:59:52 10° NNE visible
03 Jul 7.5 23:37:47 10° NW 23:40:18 13° NNW 23:42:50 10° N visible
04 Jul 7.6 03:12:04 10° N 03:14:39 13° NNE 03:17:14 10° NE visible
04 Jul 5.8 21:35:56 10° WSW 21:41:21 42° NW 21:46:45 10° NNE visible
04 Jul 7.5 23:24:36 10° NW 23:27:10 13° NNW 23:29:44 10° N visible
05 Jul 7.7 02:58:58 10° N 03:01:31 13° NNE 03:04:03 10° NE visible
05 Jul 7.6 23:11:25 10° NW 23:14:01 13° NNW 23:16:38 10° N visible
